• In Schweiz
  • Länderverzeichnis
  • Für 7 Tage
  • Wassertemperatur
  • Satellitenkarten
  • Wetterkarte
  • Widgets
  • user-avatar
    Anmelden

    Stündliche Wetter Førde

    Heute, 23 Juli, Montag

    Zeit Temperatur Niederschläge Wind Luftdruck Luftfeuchtigkeit
    00:00 +11°C° 0 mm 3 m/S 706 mmHg 98%
    01:00 +11°C° 0,1 mm 3 m/S 707 mmHg 98%
    02:00 +12°C° 0,1 mm 2 m/S 707 mmHg 98%
    03:00 +12°C° 0,1 mm 2 m/S 707 mmHg 98%
    04:00 +12°C° 0 mm 2 m/S 707 mmHg 96%
    05:00 +13°C° 0 mm 2 m/S 707 mmHg 95%
    06:00 +13°C° 0 mm 2 m/S 707 mmHg 94%
    07:00 +14°C° 0 mm 2 m/S 707 mmHg 90%
    08:00 +14°C° 0 mm 2 m/S 707 mmHg 87%
    09:00 +15°C° 0 mm 2 m/S 708 mmHg 83%
    10:00 +16°C° 0,1 mm 2 m/S 708 mmHg 79%
    11:00 +16°C° 0,1 mm 2 m/S 707 mmHg 76%
    12:00 +17°C° 0,1 mm 2 m/S 707 mmHg 72%
    13:00 +17°C° 0,3 mm 2 m/S 707 mmHg 74%
    14:00 +18°C° 0,3 mm 1 m/S 707 mmHg 75%
    15:00 +18°C° 0,3 mm 1 m/S 707 mmHg 77%
    16:00 +17°C° 0,7 mm 2 m/S 707 mmHg 81%
    17:00 +16°C° 0,7 mm 2 m/S 707 mmHg 85%
    18:00 +16°C° 0,7 mm 3 m/S 706 mmHg 90%
    19:00 +16°C° 0,6 mm 3 m/S 707 mmHg 92%
    20:00 +14°C° 0,6 mm 4 m/S 707 mmHg 94%
    21:00 +14°C° 0,6 mm 4 m/S 707 mmHg 96%
    22:00 +14°C° 0,7 mm 4 m/S 707 mmHg 97%
    23:00 +14°C° 0,7 mm 4 m/S 707 mmHg 97%

    Morgen, 24 Juli, Dienstag

    Zeit Temperatur Niederschläge Wind Luftdruck Luftfeuchtigkeit
    00:00 +14°C° 0,7 mm 3 m/S 707 mmHg 98%
    01:00 +14°C° 1,2 mm 3 m/S 707 mmHg 98%
    02:00 +14°C° 1,2 mm 3 m/S 707 mmHg 98%
    03:00 +14°C° 1,2 mm 3 m/S 707 mmHg 98%
    04:00 +14°C° 0,6 mm 2 m/S 707 mmHg 98%
    05:00 +14°C° 0,6 mm 2 m/S 707 mmHg 98%
    06:00 +14°C° 0,6 mm 1 m/S 707 mmHg 97%
    07:00 +15°C° 0,1 mm 2 m/S 707 mmHg 92%
    08:00 +16°C° 0,1 mm 2 m/S 707 mmHg 86%
    09:00 +17°C° 0,1 mm 2 m/S 708 mmHg 81%
    10:00 +18°C° 0,7 mm 2 m/S 707 mmHg 78%
    11:00 +19°C° 0,7 mm 2 m/S 707 mmHg 76%
    12:00 +19°C° 0,7 mm 2 m/S 707 mmHg 74%
    13:00 +18°C° 1,4 mm 2 m/S 707 mmHg 79%
    14:00 +17°C° 1,4 mm 2 m/S 707 mmHg 85%
    15:00 +17°C° 1,4 mm 2 m/S 707 mmHg 91%
    16:00 +16°C° 1,3 mm 2 m/S 707 mmHg 92%
    17:00 +16°C° 1,3 mm 3 m/S 707 mmHg 93%
    18:00 +16°C° 1,3 mm 3 m/S 706 mmHg 95%
    19:00 +16°C° 1 mm 3 m/S 707 mmHg 95%
    20:00 +14°C° 1 mm 3 m/S 707 mmHg 96%
    21:00 +15°C° 1 mm 2 m/S 707 mmHg 97%
    22:00 +15°C° 1 mm 2 m/S 707 mmHg 97%
    23:00 +15°C° 1 mm 2 m/S 707 mmHg 97%

    übermorgen, 25 Juli, Mittwoch

    Zeit Temperatur Niederschläge Wind Luftdruck Luftfeuchtigkeit
    00:00 +14°C° 1 mm 2 m/S 707 mmHg 97%
    01:00 +14°C° 0,5 mm 2 m/S 708 mmHg 97%
    02:00 +14°C° 0,5 mm 2 m/S 708 mmHg 97%
    03:00 +14°C° 0,5 mm 2 m/S 708 mmHg 97%
    04:00 +14°C° 0,1 mm 2 m/S 709 mmHg 96%
    05:00 +14°C° 0,1 mm 1 m/S 709 mmHg 94%
    06:00 +14°C° 0,1 mm 1 m/S 709 mmHg 93%
    07:00 +15°C° 0 mm 1 m/S 710 mmHg 86%
    08:00 +16°C° 0 mm 1 m/S 710 mmHg 79%
    09:00 +18°C° 0 mm 1 m/S 710 mmHg 72%
    10:00 +18°C° 0 mm 1 m/S 710 mmHg 66%
    11:00 +18°C° 0 mm 2 m/S 710 mmHg 60%
    12:00 +19°C° 0 mm 2 m/S 711 mmHg 54%
    13:00 +19°C° 0 mm 2 m/S 711 mmHg 54%
    14:00 +19°C° 0 mm 2 m/S 711 mmHg 53%
    15:00 +19°C° 0 mm 2 m/S 711 mmHg 53%
    16:00 +18°C° 0 mm 2 m/S 711 mmHg 56%
    17:00 +17°C° 0 mm 2 m/S 711 mmHg 60%
    18:00 +17°C° 0 mm 2 m/S 711 mmHg 63%
    19:00 +15°C° 0 mm 1 m/S 711 mmHg 70%
    20:00 +13°C° 0 mm 1 m/S 711 mmHg 76%
    21:00 +12°C° 0 mm 1 m/S 712 mmHg 83%
    22:00 +11°C° 0 mm 1 m/S 712 mmHg 84%
    23:00 +10°C° 0 mm 1 m/S 712 mmHg 86%

    26 Juli, Donnerstag

    Zeit Temperatur Niederschläge Wind Luftdruck Luftfeuchtigkeit
    00:00 +10°C° 0 mm 1 m/S 712 mmHg 87%
    01:00 +9°C° 0 mm 1 m/S 712 mmHg 88%
    02:00 +9°C° 0 mm 1 m/S 713 mmHg 88%
    03:00 +8°C° 0 mm 0 m/S 713 mmHg 89%
    04:00 +11°C° 0 mm 1 m/S 713 mmHg 83%
    05:00 +12°C° 0 mm 1 m/S 713 mmHg 77%
    06:00 +14°C° 0 mm 1 m/S 713 mmHg 72%
    07:00 +16°C° 0 mm 1 m/S 714 mmHg 65%
    08:00 +18°C° 0 mm 1 m/S 714 mmHg 58%
    09:00 +20°C° 0 mm 1 m/S 714 mmHg 51%
    10:00 +20°C° 0 mm 2 m/S 714 mmHg 47%
    11:00 +21°C° 0 mm 2 m/S 714 mmHg 43%
    12:00 +23°C° 0 mm 2 m/S 714 mmHg 39%
    13:00 +24°C° 0 mm 2 m/S 714 mmHg 38%
    14:00 +24°C° 0 mm 2 m/S 714 mmHg 38%
    15:00 +24°C° 0 mm 2 m/S 714 mmHg 37%
    16:00 +23°C° 0 mm 2 m/S 714 mmHg 42%
    17:00 +23°C° 0 mm 2 m/S 714 mmHg 47%
    18:00 +22°C° 0 mm 1 m/S 714 mmHg 51%
    19:00 +20°C° 0 mm 1 m/S 713 mmHg 60%
    20:00 +16°C° 0 mm 1 m/S 713 mmHg 68%
    21:00 +14°C° 0 mm 1 m/S 713 mmHg 77%
    22:00 +14°C° 0 mm 1 m/S 713 mmHg 77%
    23:00 +13°C° 0 mm 1 m/S 713 mmHg 78%

    27 Juli, Freitag

    Zeit Temperatur Niederschläge Wind Luftdruck Luftfeuchtigkeit
    00:00 +13°C° 0 mm 1 m/S 713 mmHg 78%
    01:00 +13°C° 0 mm 1 m/S 713 mmHg 77%
    02:00 +13°C° 0 mm 1 m/S 713 mmHg 76%
    03:00 +13°C° 0 mm 1 m/S 713 mmHg 75%
    04:00 +15°C° 0 mm 2 m/S 713 mmHg 69%
    05:00 +17°C° 0 mm 2 m/S 713 mmHg 63%
    06:00 +19°C° 0 mm 2 m/S 713 mmHg 57%
    07:00 +21°C° 0 mm 2 m/S 713 mmHg 52%
    08:00 +24°C° 0 mm 2 m/S 713 mmHg 46%
    09:00 +26°C° 0 mm 2 m/S 714 mmHg 40%
    10:00 +27°C° 0 mm 3 m/S 713 mmHg 39%
    11:00 +27°C° 0 mm 3 m/S 713 mmHg 38%
    12:00 +28°C° 0 mm 4 m/S 713 mmHg 37%
    13:00 +28°C° 0 mm 4 m/S 713 mmHg 41%
    14:00 +27°C° 0 mm 4 m/S 713 mmHg 45%
    15:00 +27°C° 0 mm 3 m/S 713 mmHg 49%
    16:00 +26°C° 0,1 mm 3 m/S 713 mmHg 53%
    17:00 +25°C° 0,1 mm 3 m/S 713 mmHg 57%
    18:00 +25°C° 0,1 mm 2 m/S 713 mmHg 61%
    19:00 +23°C° 0,2 mm 2 m/S 713 mmHg 66%
    20:00 +21°C° 0,2 mm 2 m/S 713 mmHg 70%
    21:00 +20°C° 0,2 mm 2 m/S 713 mmHg 74%
    22:00 +19°C° 0,1 mm 2 m/S 713 mmHg 74%
    23:00 +18°C° 0,1 mm 2 m/S 712 mmHg 75%

    28 Juli, Samstag

    Zeit Temperatur Niederschläge Wind Luftdruck Luftfeuchtigkeit
    00:00 +18°C° 0,1 mm 2 m/S 712 mmHg 75%
    01:00 +18°C° 0,1 mm 2 m/S 712 mmHg 75%
    02:00 +17°C° 0,1 mm 3 m/S 712 mmHg 74%
    03:00 +17°C° 0,1 mm 3 m/S 711 mmHg 73%
    04:00 +18°C° 0,2 mm 3 m/S 711 mmHg 71%
    05:00 +19°C° 0,2 mm 3 m/S 711 mmHg 68%
    06:00 +21°C° 0,2 mm 3 m/S 711 mmHg 66%
    07:00 +22°C° 0 mm 4 m/S 711 mmHg 60%
    08:00 +23°C° 0 mm 5 m/S 711 mmHg 54%
    09:00 +26°C° 0 mm 6 m/S 711 mmHg 48%
    10:00 +26°C° 0 mm 6 m/S 711 mmHg 47%
    11:00 +27°C° 0 mm 6 m/S 710 mmHg 45%
    12:00 +27°C° 0 mm 6 m/S 710 mmHg 44%
    13:00 +26°C° 0,4 mm 5 m/S 709 mmHg 47%
    14:00 +26°C° 0,4 mm 5 m/S 709 mmHg 50%
    15:00 +25°C° 0,4 mm 4 m/S 709 mmHg 52%
    16:00 +23°C° 1,6 mm 4 m/S 708 mmHg 60%
    17:00 +22°C° 1,6 mm 4 m/S 708 mmHg 68%
    18:00 +21°C° 1,6 mm 3 m/S 708 mmHg 75%
    19:00 +20°C° 2 mm 3 m/S 708 mmHg 81%
    20:00 +19°C° 2 mm 4 m/S 708 mmHg 86%
    21:00 +18°C° 2 mm 4 m/S 708 mmHg 92%
    22:00 +17°C° 0,7 mm 4 m/S 709 mmHg 93%
    23:00 +15°C° 0,7 mm 4 m/S 709 mmHg 94%
    Mehr zeigen